Pagosa Springs, CO

11:51 AM MST on November 22, 2019 (GMT -0700)
Pagosa Springs

Weather History for KPSO - September, 2019

Change the Weather History Date:

Monday, September 16, 2019

  Actual Average (KE33) Record (KE33)
Temperature  
Mean Temperature 60 °F -  
Max Temperature 69 °F 66 °F 80 °F (2000)
Min Temperature 51 °F 44 °F 37 °F (1996)
Degree Days  
Heating Degree Days 5    
Growing Degree Days 10 (Base 50)    
Moisture  
Dew Point 52 °F    
Average Humidity 84    
Maximum Humidity 100    
Minimum Humidity 46    
Precipitation  
Precipitation 0.00 in - - ()
Sea Level Pressure  
Sea Level Pressure 30.29 in    
Wind  
Wind Speed 2 mph (West)    
Max Wind Speed 13 mph    
Max Gust Speed 21 mph    
Visibility 9 miles    
Events Rain , Thunderstorm    
Averages and records for this station are not official NWS values.
T = Trace of Precipitation, MM = Missing Value Source: NWS Daily Summary

Daily Weather History Graph

Daily Weather History Graph

Search for Another Location

Airport or City:

Astronomy

Sep. 16, 2019 Rise Set
Actual Time 6:50 AM MDT 7:14 PM MDT
Civil Twilight 6:24 AM MDT 7:40 PM MDT
Nautical Twilight 5:54 AM MDT 8:11 PM MDT
Astronomical Twilight 5:22 AM MDT 8:42 PM MDT
Moon 8:53 PM MDT (9/16) 8:58 AM MDT (9/16)
Length of Visible Light 13h 15m
Length of Day
12h 23m
Waning Gibbous, 94% of the Moon is Illuminated
Sep 16
Waning Gibbous
Sep 21
Last Quarter
Sep 28
New
Oct 5
First Quarter
Oct 13
Full

Hourly Weather History & Observations

Time (MDT) Temp. Dew Point Humidity Pressure Visibility Wind Dir Wind Speed Gust Speed Precip Events Conditions
12:15 AM 52.0 °F 52.0 °F 100% 30.35 in 3.0 mi Calm Calm - N/A Rain Rain
12:35 AM 52.0 °F 52.0 °F 100% 30.35 in 7.0 mi Calm Calm - N/A Rain Light Rain
12:55 AM 52.0 °F 52.0 °F 100% 30.34 in 10.0 mi Calm Calm - N/A Rain Rain
1:15 AM 52.0 °F 52.0 °F 100% 30.34 in 10.0 mi Calm Calm - N/A Rain Light Rain
1:35 AM 52.2 °F 52.2 °F 100% 30.34 in 10.0 mi Calm Calm - N/A   Overcast
1:55 AM 52.2 °F 52.2 °F 100% 30.33 in 10.0 mi Calm Calm - N/A   Overcast
2:15 AM 52.3 °F 52.3 °F 100% 30.32 in 10.0 mi Calm Calm - N/A   Overcast
2:35 AM 52.3 °F 52.3 °F 100% 30.32 in 10.0 mi West 5.8 mph - N/A   Overcast
2:55 AM 52.0 °F 52.0 °F 100% 30.32 in 4.0 mi NW 4.6 mph - N/A Rain Heavy Rain
3:15 AM 52.0 °F 52.0 °F 100% 30.32 in 10.0 mi West 5.8 mph - N/A   Drizzle
3:35 AM 51.8 °F 51.8 °F 100% 30.31 in 10.0 mi North 3.5 mph - N/A Rain Rain
3:55 AM 51.8 °F 51.8 °F 100% 30.31 in 10.0 mi Calm Calm - N/A Rain Rain
4:15 AM 51.8 °F 51.8 °F 100% 30.31 in 2.5 mi Calm Calm - N/A Rain Light Rain
4:35 AM 51.8 °F 51.8 °F 100% 30.29 in 3.0 mi NNE 4.6 mph - N/A Rain Light Rain
4:55 AM 51.8 °F 51.8 °F 100% 30.30 in 1.0 mi NW 3.5 mph - N/A   Overcast
5:15 AM 52.0 °F 52.0 °F 100% 30.29 in 5.0 mi NNE 4.6 mph - N/A Rain Rain
5:35 AM 52.0 °F 52.0 °F 100% 30.30 in 5.0 mi West 6.9 mph - N/A Rain Rain
5:55 AM 52.3 °F 52.3 °F 100% 30.30 in 7.0 mi Calm Calm - N/A Rain Rain
6:15 AM 52.2 °F 52.2 °F 100% 30.30 in 10.0 mi Calm Calm - N/A Rain Rain
6:35 AM 52.3 °F 52.3 °F 100% 30.30 in 10.0 mi Calm Calm - N/A Rain Light Rain
6:55 AM 52.2 °F 52.2 °F 100% 30.31 in 10.0 mi Calm Calm - N/A   Overcast
7:35 AM 52.0 °F 52.0 °F 100% 30.31 in 10.0 mi Calm Calm - N/A   Overcast
7:55 AM 52.5 °F 52.5 °F 100% 30.31 in 10.0 mi Calm Calm - N/A   Light Drizzle
8:15 AM 52.7 °F 52.7 °F 100% 30.32 in 10.0 mi Calm Calm - N/A   Overcast
8:35 AM 52.7 °F 52.7 °F 100% 30.32 in 10.0 mi Calm Calm - N/A Rain Light Rain
8:55 AM 53.2 °F 53.2 °F 100% 30.32 in 10.0 mi Calm Calm - N/A   Overcast
9:15 AM 53.4 °F 53.4 °F 100% 30.33 in 10.0 mi Calm Calm - N/A   Overcast
9:35 AM 53.8 °F 53.8 °F 100% 30.33 in 2.5 mi NW 3.5 mph - N/A Rain Rain
9:55 AM 53.6 °F 53.6 °F 100% 30.33 in 2.5 mi NW 3.5 mph - N/A   Heavy Drizzle
10:15 AM 54.0 °F 54.0 °F 100% 30.33 in 3.0 mi Calm Calm - N/A   Drizzle
10:35 AM 54.5 °F 54.1 °F 99% 30.33 in 5.0 mi Calm Calm - N/A   Overcast
10:55 AM 55.4 °F 54.9 °F 98% 30.33 in 10.0 mi Calm Calm - N/A   Overcast
11:15 AM 55.8 °F 54.9 °F 97% 30.33 in 10.0 mi East 3.5 mph - N/A   Overcast
11:35 AM 56.5 °F 54.7 °F 94% 30.33 in 10.0 mi Calm Calm - N/A   Overcast
11:55 AM 57.2 °F 55.8 °F 95% 30.32 in 10.0 mi Calm Calm - N/A   Overcast
12:15 PM 57.9 °F 52.3 °F 82% 30.32 in 10.0 mi Calm Calm - N/A   Overcast
12:35 PM 59.7 °F 51.8 °F 75% 30.31 in 10.0 mi SW 5.8 mph - N/A   Mostly Cloudy
12:55 PM 60.6 °F 51.6 °F 72% 30.30 in 10.0 mi WSW 3.5 mph - N/A   Scattered Clouds
1:15 PM 62.1 °F 50.4 °F 65% 30.30 in 10.0 mi SW 6.9 mph - N/A   Mostly Cloudy
1:35 PM 62.1 °F 53.1 °F 72% 30.29 in 10.0 mi SE 8.1 mph - N/A   Mostly Cloudy
1:55 PM 62.8 °F 52.0 °F 68% 30.28 in 10.0 mi Calm Calm - N/A   Mostly Cloudy
2:15 PM 64.2 °F 51.6 °F 64% 30.27 in 10.0 mi South 3.5 mph - N/A   Overcast
2:35 PM 64.0 °F 51.4 °F 64% 30.27 in 10.0 mi SSE 4.6 mph - N/A   Overcast
2:55 PM 66.2 °F 50.5 °F 57% 30.26 in 10.0 mi SSE 8.1 mph - N/A   Overcast
3:15 PM 66.0 °F 49.3 °F 55% 30.26 in 10.0 mi SW 6.9 mph - N/A   Overcast
3:35 PM 67.6 °F 48.0 °F 49% 30.25 in 10.0 mi WSW 9.2 mph - N/A   Overcast
3:55 PM 69.1 °F 49.8 °F 50% 30.25 in 10.0 mi WSW 11.5 mph - N/A   Mostly Cloudy
4:15 PM 68.7 °F 47.5 °F 47% 30.24 in 10.0 mi SW 10.4 mph - N/A   Mostly Cloudy
4:35 PM 67.6 °F 49.8 °F 53% 30.24 in 10.0 mi WSW 10.4 mph 20.7 mph N/A   Scattered Clouds
4:55 PM 67.6 °F 48.4 °F 50% 30.23 in 10.0 mi SW 12.7 mph - N/A Thunderstorm Scattered Clouds
5:15 PM 67.1 °F 48.7 °F 52% 30.23 in 10.0 mi WSW 8.1 mph - N/A   Scattered Clouds
5:35 PM 67.5 °F 45.9 °F 46% 30.23 in 10.0 mi WNW 5.8 mph - N/A   Overcast
5:55 PM 66.4 °F 45.3 °F 47% 30.24 in 10.0 mi WSW 9.2 mph - N/A   Scattered Clouds
6:15 PM 66.0 °F 45.1 °F 47% 30.24 in 10.0 mi WSW 6.9 mph - N/A   Clear
6:35 PM 65.1 °F 45.3 °F 49% 30.24 in 10.0 mi WSW 6.9 mph - N/A   Scattered Clouds
6:55 PM 63.5 °F 46.8 °F 54% 30.23 in 10.0 mi Calm Calm - N/A   Clear
7:15 PM 59.4 °F 48.2 °F 67% 30.24 in 10.0 mi Calm Calm - N/A   Clear
7:35 PM 57.6 °F 49.5 °F 74% 30.24 in 10.0 mi Calm Calm - N/A   Clear
7:55 PM 57.9 °F 49.3 °F 73% 30.25 in 10.0 mi Calm Calm - N/A   Scattered Clouds
8:15 PM 57.6 °F 50.2 °F 76% 30.26 in 10.0 mi Calm Calm - N/A   Mostly Cloudy
8:35 PM 57.6 °F 52.0 °F 82% 30.26 in 10.0 mi NNE 6.9 mph - N/A   Scattered Clouds
8:55 PM 56.7 °F 53.6 °F 89% 30.25 in 10.0 mi NE 5.8 mph - N/A   Clear
9:15 PM 56.3 °F 54.3 °F 93% 30.26 in 10.0 mi NNE 4.6 mph - N/A   Mostly Cloudy
9:35 PM 57.2 °F 51.6 °F 82% 30.27 in 10.0 mi Calm Calm - N/A   Overcast
9:55 PM 56.3 °F 52.0 °F 85% 30.27 in 10.0 mi Calm Calm - N/A   Scattered Clouds
10:15 PM 55.6 °F 53.6 °F 93% 30.27 in 10.0 mi Calm Calm - N/A   Mostly Cloudy
10:35 PM 55.8 °F 52.7 °F 89% 30.27 in 10.0 mi NNE 3.5 mph - N/A   Scattered Clouds
10:55 PM 55.0 °F 52.7 °F 92% 30.27 in 10.0 mi Calm Calm - N/A   Clear
11:15 PM 54.1 °F 52.5 °F 94% 30.27 in 10.0 mi Calm Calm - N/A   Clear
11:35 PM 53.4 °F 52.5 °F 97% 30.27 in 10.0 mi Calm Calm - N/A   Mostly Cloudy
11:55 PM 52.9 °F 52.3 °F 98% 30.27 in 10.0 mi Calm Calm - N/A   Scattered Clouds